Other Surface Observations
Issued by NWS

Current Version | Previous Version | Text Only | Print | Product List | Glossary On
Versions: 1 2 3 4 5 6 7 8 9 10 11 12 13 14 15 16 17 18 19 20 21 22 23 24 25 26 27 28 29 30 31 32 33 34 35 36 37 38 39 40 41 42 43 44 45 46 47 48 49 50
000
SXUS52 KTAE 212310
OSOTAE
OSOTAE
North Florida/South Alabama/Southwest Georgia Weather Roundup
National Weather Service Tallahassee Florida
700 PM EDT MON MAY 21 2018

Note: "fair" indicates few or no clouds below 12,000 feet with no
significant weather and/or obstructions to visibility.

!FLZ017-115-028-034-025-220000
...North Florida...

CITY           SKY/WX    TMP DP  RH WIND       PRES   REMARKS
TALLAHASSEE    PTSUNNY   81  69  67 S14       30.02R
APALACHICOLA   PTSUNNY   79  75  87 S14       29.99F
PERRY          PTSUNNY   74  71  92 CALM      30.05S
CROSS CITY     TSTM      73  72  97 S9G17     30.05R
JACKSONVILLE   PTSUNNY   79  72  79 SE8       30.07S
$$

!FLZ112-006-005-002-011-220000
...Florida Panhandle...

CITY           SKY/WX    TMP DP  RH WIND       PRES   REMARKS
MARIANNA       RAIN      75  73  93 E5        30.01R
BONIFAY        FAIR      77  72  84 N3        30.00S
PANAMA CITY NW FAIR      80  69  69 SE10      29.97F
TYNDALL AFB    NOT AVBL
TYND DRONE APT NOT AVBL
DE FUNIAK SPR  FAIR      73  71  93 NE3       29.99F
EGLIN AFB      NOT AVBL
DESTIN         FAIR      78  68  71 SE8       29.96S
HURLBURT       NOT AVBL
CRESTVIEW      PTSUNNY   72  71  97 E5        29.99S
PENSACOLA      CLOUDY    83  69  62 S12       29.94S
$$

!ALZ063-066-220000
...South Alabama...

CITY           SKY/WX    TMP DP  RH WIND       PRES   REMARKS
DOTHAN         LGT RAIN  71  69  93 E7        30.05F
OZARK CAIRNS   NOT AVBL
FT RUCKER HELI NOT AVBL
RUCKER HELI 3  NOT AVBL
RUCKER HELI 2  NOT AVBL
FLORALA APT    LGT RAIN  72  69  90 NE5       30.02S
ANDALUSIA      LGT RAIN  74  70  87 NE5       30.00S
TROY           LGT RAIN  71  68  90 SE6       30.03S
EUFALA         TSTM      74  71  91 E7        30.03R
MOBILE         CLOUDY    78  70  76 SW9       29.97S
$$

!GAZ120>161-220000
...Southwest and South Central Georgia...

CITY           SKY/WX    TMP DP  RH WIND       PRES   REMARKS
THOMASVILLE    CLOUDY   N/A N/A N/A SE10G20   30.08R
BAINBRIDGE     CLOUDY    73  73 100 NE5       30.02S
MOODY AFB      NOT AVBL
VALDOSTA       FAIR      76  68  76 S13       30.06R
MOULTRIE       TSTM      72  70  94 S3        30.07R
BLAKELY        LGT RAIN  72  68  88 CALM      30.03F
ALBANY         TSTM      72  68  87 S6        30.06R FOG
TIFTON         PTSUNNY   77  68  74 SE5       30.06S
FITZGERALD     CLOUDY    75  69  80 SE10      30.10R
CORDELE        CLOUDY    80  75  86 NE6       30.07S
AMERICUS       CLOUDY    73  64  73 E7        30.08S
HOMERVILLE     CLOUDY    77  68  73 SE7       30.08R
$$

!GMZ750-755-770-775-220000
...Coastal and Buoy Obs...

STATION/POSITION TIME  TEMP    WIND        PRES    VSBY  WAVE
                       AIR SEA DIR/SP/G                  HT/PER
                 (UTC) (F)     (DEG/KT/KT) (MB)    (MI)  (FT/S)
KEATON BEACH     2300   75      90/  8/ 10 1017.2F
CEDAR KEY        2300   75     150/ 14/ 16 1017.8R
C TOWER          2300   77     150/ 12/ 13 1016.1F
APALACHICOLA BUO NOT AVBL
PANAMA CITY BUOY 2250   80 84  120/  4/  6 1014.9S         2/ 6
MOBILE BUOY      2250      84  120/  4/  8 1014.8F         3/ 6
ORANGE BCH AL BU 2250   78     200/  8/ 12 1014.6F         2/ 5
$$




USA.gov is the U.S. government's official web portal to all federal, state and local government web resources and services.